"Pseudo-MPEC" for P12oEGv

Created 2026 Jul 26 18:35:10 UT using Find_Orb

Click here for an explanation of pseudo-MPECs

 
 Astrometry: 
     P12oEGv*0C2026 07 25.56987423 04 49.546-07 09 43.96   ~7PKo 22.12wXNEOCPF51
     P12oEGv 0C2026 07 25.59112623 04 49.777-07 08 46.17   ~7PKo 21.51wXNEOCPF51
     P12oEGv 0C2026 07 25.60192423 04 49.883-07 08 16.68   ~7PKo 22.09wXNEOCPF51
     P12oEGv 0C2026 07 26.49567323 05 06.272-06 27 06.09   ~7QGZ 21.16GVNEOCPF52
     P12oEGv 0C2026 07 26.50514623 05 06.299-06 26 39.00   ~7QGZ 21.09GVNEOCPF52
     P12oEGv 0C2026 07 26.50595423 05 06.308-06 26 36.57   ~7QGZ 21.53GVNEOCPF52
     P12oEGv 0C2026 07 26.51484523 05 06.382-06 26 11.58   ~7QGZ 21.61GVNEOCPF52
     P12oEGv 0C2026 07 26.51565223 05 06.372-06 26 10.10   ~7QGZ 21.79GVNEOCPF52
     P12oEGv 0C2026 07 26.52452023 05 06.467-06 25 45.11   ~7QGZ 21.80GVNEOCPF52
     P12oEGv 0C2026 07 26.52532723 05 06.462-06 25 42.87   ~7QGZ 21.18GVNEOCPF52

Station data:
(F51) Pan-STARRS 1, Haleakala  (N20.707234 W156.255910)  US/Hawaii.
   Observers J. Herman, T. Lowe, P. Minguez, A. Schultz, I. Smith. Measurers
   K. Chambers, T. de Boer, J. Fairlamb, H. Gao, M. Huber, C.-C. Lin, E.
   Magnier, Y. Ramanjooloo, R. Wainscoat, R. Weryk. 1.8-m Ritchey-Chrétien +
   CCD.
(F52) Pan-STARRS 2, Haleakala  (N20.707382 W156.255910)  US/Hawaii.
   Observers J. Herman, T. Lowe, P. Minguez, A. Schultz, I. Smith. Measurers
   K. Chambers, T. de Boer, J. Fairlamb, H. Gao, M. Huber, C.-C. Lin, E.
   Magnier, Y. Ramanjooloo, R. Wainscoat, R. Weryk. 1.8-m Ritchey-Chrétien +
   CCD.

Orbital elements:  P12oEGv
   Perihelion 2026 Oct 17.592124 +/- 13.3 TT = 14:12:39.5 (JD 2461331.092124)
Epoch 2026 Jul 26.0 TT = JDT 2461247.5   Earth MOID: 0.2353   Ma: 0.0135
M 322.402477316 +/- 10              (J2000 ecliptic)             AutoNEOCP
n   0.449773504 +/- 0.0598          Peri.   71.161229 +/- 18
a   1.687097325 +/- 0.149           Node   314.991436 +/- 0.54
e   0.34755095 +/- 0.052            Incl.   17.995770 +/- 1.3
P   2.191/800.388d         H 21.80  G  0.15   U 10.9
q 1.100745035 +/- 0.125    Q 2.273449615 +/- 0.227
From 10 observations 2026 July 25-26 (22.9 hr); mean residual 0".24
Residuals in arcseconds: 
260725 F51  .14-  .10+    260726 F52  .19-  .22+    260726 F52  .16+  .18-    
260725 F51  .10+  .06-    260726 F52  .15-  .38+    260726 F52  .00   .21-    
260725 F51  .04+  .04-    260726 F52  .04-  .47+    
260726 F52  .49+  .35-    260726 F52  .28-  .32-    

Ephemerides (geocentric):
Date (UTC) HH   RA             Dec           delta  r     elong  mag " sig PA
---- --------  ------------   ------------  ------ ------ -----  --- --------
2026 07 26 19  23 05 10.379   -06 13 02.03  .39338 1.3357 138.5 21.7 .936 130
2026 07 26 20  23 05 11.010   -06 11 04.03  .39306 1.3355 138.5 21.7 .987 127
2026 07 26 21  23 05 11.636   -06 09 05.88  .39274 1.3353 138.5 21.7 1.04 125
2026 07 26 22  23 05 12.256   -06 07 07.57  .39242 1.3351 138.5 21.7 1.10 123
2026 07 26 23  23 05 12.872   -06 05 09.10  .39210 1.3350 138.6 21.7 1.16 120
2026 07 27 00  23 05 13.482   -06 03 10.48  .39179 1.3348 138.6 21.7 1.22 118
2026 07 27 01  23 05 14.088   -06 01 11.70  .39147 1.3346 138.6 21.7 1.29 117
2026 07 27 02  23 05 14.689   -05 59 12.77  .39115 1.3344 138.6 21.7 1.36 115
2026 07 27 03  23 05 15.284   -05 57 13.67  .39083 1.3342 138.7 21.7 1.44 113
2026 07 27 04  23 05 15.875   -05 55 14.43  .39052 1.3340 138.7 21.7 1.51 112
2026 07 27 05  23 05 16.460   -05 53 15.02  .39020 1.3338 138.7 21.7 1.59 111
2026 07 27 06  23 05 17.040   -05 51 15.46  .38988 1.3336 138.7 21.7 1.67 109
2026 07 27 07  23 05 17.616   -05 49 15.74  .38956 1.3334 138.8 21.7 1.76 108
2026 07 27 08  23 05 18.186   -05 47 15.86  .38925 1.3332 138.8 21.7 1.85 107
2026 07 27 09  23 05 18.751   -05 45 15.82  .38893 1.3330 138.8 21.7 1.94 106
2026 07 27 10  23 05 19.311   -05 43 15.63  .38862 1.3328 138.8 21.7 2.03 105
2026 07 27 11  23 05 19.866   -05 41 15.28  .38830 1.3326 138.9 21.7 2.13 104
2026 07 27 12  23 05 20.416   -05 39 14.77  .38799 1.3324 138.9 21.7 2.23 104
2026 07 27 13  23 05 20.961   -05 37 14.10  .38767 1.3322 138.9 21.7 2.33 103
2026 07 27 14  23 05 21.501   -05 35 13.27  .38736 1.3320 138.9 21.7 2.43 102
2026 07 27 15  23 05 22.036   -05 33 12.28  .38704 1.3319 139.0 21.7 2.54 102
2026 07 27 16  23 05 22.565   -05 31 11.13  .38673 1.3317 139.0 21.7 2.65 101
2026 07 27 17  23 05 23.090   -05 29 09.83  .38641 1.3315 139.0 21.7 2.76 100
2026 07 27 18  23 05 23.609   -05 27 08.36  .38610 1.3313 139.0 21.7 2.88 100
2026 07 27 19  23 05 24.123   -05 25 06.73  .38579 1.3311 139.1 21.7 2.99  99
2026 07 27 20  23 05 24.632   -05 23 04.95  .38547 1.3309 139.1 21.7 3.11  99
2026 07 27 21  23 05 25.136   -05 21 03.00  .38516 1.3307 139.1 21.7 3.23  98
2026 07 27 22  23 05 25.635   -05 19 00.90  .38485 1.3305 139.1 21.6 3.36  98
2026 07 27 23  23 05 26.129   -05 16 58.63  .38453 1.3303 139.2 21.6 3.48  98
2026 07 28 00  23 05 26.617   -05 14 56.20  .38422 1.3301 139.2 21.6 3.61  97
2026 07 28 01  23 05 27.101   -05 12 53.61  .38391 1.3299 139.2 21.6 3.75  97
2026 07 28 02  23 05 27.579   -05 10 50.86  .38360 1.3297 139.2 21.6 3.88  96
2026 07 28 03  23 05 28.052   -05 08 47.95  .38329 1.3295 139.3 21.6 4.02  96
2026 07 28 04  23 05 28.520   -05 06 44.87  .38298 1.3293 139.3 21.6 4.16  96
2026 07 28 05  23 05 28.982   -05 04 41.64  .38267 1.3292 139.3 21.6 4.30  95
2026 07 28 06  23 05 29.440   -05 02 38.24  .38235 1.3290 139.3 21.6 4.44  95
2026 07 28 07  23 05 29.892   -05 00 34.68  .38204 1.3288 139.4 21.6 4.59  95
2026 07 28 08  23 05 30.339   -04 58 30.96  .38173 1.3286 139.4 21.6 4.74  95
2026 07 28 09  23 05 30.781   -04 56 27.07  .38142 1.3284 139.4 21.6 4.89  94
2026 07 28 10  23 05 31.218   -04 54 23.03  .38111 1.3282 139.4 21.6 5.04  94
2026 07 28 11  23 05 31.649   -04 52 18.81  .38081 1.3280 139.4 21.6 5.20  94
2026 07 28 12  23 05 32.076   -04 50 14.44  .38050 1.3278 139.5 21.6 5.36  94
2026 07 28 13  23 05 32.497   -04 48 09.90  .38019 1.3276 139.5 21.6 5.52  94
2026 07 28 14  23 05 32.912   -04 46 05.20  .37988 1.3274 139.5 21.6 5.68  93
2026 07 28 15  23 05 33.323   -04 44 00.34  .37957 1.3272 139.5 21.6 5.85  93
2026 07 28 16  23 05 33.728   -04 41 55.31  .37926 1.3270 139.6 21.6 6.01  93
2026 07 28 17  23 05 34.128   -04 39 50.11  .37895 1.3268 139.6 21.6 6.18  93
2026 07 28 18  23 05 34.523   -04 37 44.75  .37865 1.3266 139.6 21.6 6.36  93